Tracking 19969 objects as of 12-Nov-2019
Live streaming from Space Station
objects crossing your sky now
Track the group of recently launched Starlink satellites

SL-12 DEB

Track SL-12 DEB now!
10-day predictions


NORAD ID: 28583
Int'l Code: 1992-047S
Perigee: 759.8 km
Apogee: 16,122.1 km
Inclination: 65.2 °
Period: 299.0 minutes
Semi major axis: 14811 km
RCS: 0.0466 m2 (small)
Launch date: July 30, 1992
Source: Commonwealth of Independent States (former USSR) (CIS)
Launch site: TYURATAM MISSILE AND SPACE COMPLEX (TTMTR)

Note: This is SATELLITE DEBRIS
aabbcc
Your satellite tracking list
Your tracking list is empty




NASA's NSSDC Master Catalog

Two Line Element Set (TLE):
1 28583U 92047S   12241.01746186  .00001654  00000-0  16151-1 0  9992
2 28583 065.2123 235.8416 5185762 357.5728 000.6535 04.81595548142664
Source of the keplerian elements: AFSPC